Regional Weather Roundup
Issued by NWS

Home | Current Version | Previous Version | Graphics & Text | Print | Product List | Glossary On
Versions: 1 2 3 4 5 6 7 8 9 10 11 12 13 14 15 16 17 18 19 20 21 22 23 24 25 26 27 28 29 30 31 32 33 34 35 36 37 38 39 40 41 42 43 44 45 46 47 48 49 50
000
ASUS43 KLSX 232207
RWRMO

WEATHER SUMMARY FOR MISSOURI
NATIONAL WEATHER SERVICE SPRINGFIELD MO
500 PM CDT WED JUL 23 2014

NOTE: "FAIR" INDICATES FEW OR NO CLOUDS BELOW 12,000 FEET WITH NO
       SIGNIFICANT WEATHER AND/OR OBSTRUCTIONS TO VISIBILITY.
       CURRENT SKY AND/OR WEATHER CONDITIONS ARE NOT AVAILABLE FOR
       CHILLICOTHE AND FARMINGTON.

MOZ001>031-035>038-043-044-053-054-232300-
...NORTHERN AND WESTERN MISSOURI...

CITY           SKY/WX    TMP DP  RH WIND       PRES   REMARKS
KANSAS CTY INT PTSUNNY   86  65  49 N13       30.12F
KANSAS C DTWN  SUNNY     88  64  44 N10       30.09F
LEE`S SUMMIT   SUNNY     86  65  49 NE10G17   30.10F
ST JOSEPH      SUNNY     85  66  53 NE13      30.12F
CHILLICOTHE      N/A     86  62  44 N7        30.12F
KIRKSVILLE     MOSUNNY   80  62  54 NE15G21   30.13S

$$
MOZ066>068-077>081-088>096-101>105-232300-
...SOUTHWEST MISSOURI...

CITY           SKY/WX    TMP DP  RH WIND       PRES   REMARKS
SPRINGFIELD    MOSUNNY   92  65  40 N14       30.04S HX  94
JOPLIN         MOSUNNY   89  69  51 N9G17     30.05R HX  93

$$
MOZ032>034-039>042-045>050-055>058-069>072-232300-
...CENTRAL MISSOURI...

CITY           SKY/WX    TMP DP  RH WIND       PRES   REMARKS
COLUMBIA       MOSUNNY   87  64  46 NE10      30.07F
JEFFERSON CITY PTSUNNY   86  66  51 NE10G18   30.04F
ROLLA          MOSUNNY   87  65  47 N12       30.04F
SEDALIA        SUNNY     86  65  49 N14       30.07F
WHITEMAN AFB   SUNNY     85  56  36 N15       30.06F
OSAGE BEACH    MOSUNNY   90  66  45 NE12G18   30.04S HX  92

$$
MOZ051-052-059>065-232300-
...EAST CENTRAL MISSOURI...

CITY           SKY/WX    TMP DP  RH WIND       PRES   REMARKS
ST LOUIS INTL  MOSUNNY   84  66  54 N15       30.05F
SPIRIT OF STL  PTSUNNY   83  65  54 NE15      30.04F
ST CHARLES     MOSUNNY   83  66  56 N17       30.05F

$$
MOZ072>076-082>087-097>100-106>115-232300-
...SOUTH CENTRAL AND SOUTHEAST MISSOURI...

CITY           SKY/WX    TMP DP  RH WIND       PRES   REMARKS
CAPE GIRARDEAU CLOUDY    76  69  79 W14       30.00R
FARMINGTON     PTSUNNY   84  72  65 N9        30.05R
POPLAR BLUFF   CLOUDY    74  67  78 W7        30.00F
WEST PLAINS    PTSUNNY   72  68  87 SW6       30.06F

$$



USA.gov is the U.S. government's official web portal to all federal, state and local government web resources and services.